"Pseudo-MPEC" for P11B9XM

Created 2022 Nov 25 13:22:17 UT using Find_Orb

Click here for an explanation of pseudo-MPECs

 
 Astrometry: 
     P11B9XM* C2022 10 31)_l@xtUbvfg?@tVsxT;h[?]RX;u)HYBnyuhT]?u$^oynhYlvu4vVF51
     P11B9XM  C2022 10 31S3bfAstrometry)8Iredacted;QKlEJAgXX,S\D58Do+AD?qTM+qF51
     P11B9XM  C2022 10 31m4c?4bd8)+pal$x6gO%\4Z-clickqi4`'jIx/7`MODYE_%#];^KDF51
     P11B9XM  C2022 10 31caXcv@4eT7K6[N4keNr:rQ9X0qoLUtJr\)[X#ohereC1`HGvP5g;F51
     P11B9XM  C2022 10 31_/6kH!s'N8RFN5[,8+)#E+%A[:bPX_IGbq[fori*d(6dVK==_@^`F51
     P11B9XM  C2022 11 02Eu:BLLxeuE'GH=6,[BEOGyFd^^C:explanation^#6RE$D'CcGk7F51

Station data:
(F51) Pan-STARRS 1, Haleakala  (N20.707234 W156.255910)  US/Hawaii.
   Observers J. Bulger, T. Lowe, A. Schultz, M. Willman. Measurers K.
   Chambers, S. Chastel, T. de Boer, L. Denneau, J. Fairlamb, H. Flewelling,
   M. Huber, C.-C. Lin, E. Magnier, Y. Ramanjooloo, R. Wainscoat, R. Weryk.
   1.8-m Ritchey-Chrétien + CCD.

Orbital elements:  P11B9XM
   Perihelion 2022 Oct 14.08325 +/- 5.2 TT =  1:59:53 (JD 2459866.58325)
Epoch 2022 Nov  2.0 TT = JDT 2459885.5   Earth MOID: 0.2398   AutoNEOCP
M   7.98099135 +/- 2.9              (J2000 ecliptic)
n   0.42190086 +/- 0.0403           Peri.  129.11456 +/- 5.7
a   1.76060704 +/- 0.112            Node   245.92620 +/- 1.4
e   0.3238744 +/- 0.0354            Incl.   11.09703 +/- 0.6
P   2.34/853.26d           H 22.7   G  0.15   U 10.6
q 1.19039149 +/- 0.0134    Q 2.33082260 +/- 0.211
From 6 observations 2022 Oct. 31-Nov. 2; mean residual 0".23
Residuals in arcseconds: 
221031 F51  .43-  .34+    221031 F51  .26+  .41-    221031 F51  .04-  .07-    
221031 F51  .27+  .03-    221031 F51  .07-  .17+    221102 F51  .00   .00     

Ephemerides (geocentric):
Date (UTC) HH   RA             Dec           delta  r     elong  mag " sig PA
---- --------  ------------   ------------  ------ ------ -----  --- --------
2022 11 25 13  00 41 17.217   +15 34 20.08  .35010 1.2484 131.9 22.4 1439 127
2022 11 25 14  00 41 25.738   +15 33 27.06  .35029 1.2485 131.9 22.4 1442 127
2022 11 25 15  00 41 34.257   +15 32 34.11  .35049 1.2486 131.9 22.4 1446 127
2022 11 25 16  00 41 42.772   +15 31 41.23  .35068 1.2487 131.8 22.4 1450 127
2022 11 25 17  00 41 51.285   +15 30 48.42  .35088 1.2488 131.8 22.4 1454 127
2022 11 25 18  00 41 59.795   +15 29 55.67  .35107 1.2489 131.8 22.4 1457 127
2022 11 25 19  00 42 08.303   +15 29 02.99  .35127 1.2490 131.8 22.4 1461 127
2022 11 25 20  00 42 16.807   +15 28 10.38  .35146 1.2492 131.8 22.4 1465 127
2022 11 25 21  00 42 25.309   +15 27 17.84  .35166 1.2493 131.8 22.4 1468 127
2022 11 25 22  00 42 33.809   +15 26 25.37  .35186 1.2494 131.8 22.4 1472 127
2022 11 25 23  00 42 42.305   +15 25 32.96  .35205 1.2495 131.8 22.4 1476 127
2022 11 26 00  00 42 50.799   +15 24 40.62  .35225 1.2496 131.7 22.4 1480 127
2022 11 26 01  00 42 59.290   +15 23 48.35  .35245 1.2497 131.7 22.4 1483 127
2022 11 26 02  00 43 07.778   +15 22 56.15  .35264 1.2498 131.7 22.4 1487 127
2022 11 26 03  00 43 16.264   +15 22 04.01  .35284 1.2499 131.7 22.4 1491 127
2022 11 26 04  00 43 24.747   +15 21 11.95  .35304 1.2500 131.7 22.4 1495 127
2022 11 26 05  00 43 33.227   +15 20 19.95  .35324 1.2501 131.7 22.4 1498 127
2022 11 26 06  00 43 41.704   +15 19 28.02  .35343 1.2502 131.7 22.4 1502 127
2022 11 26 07  00 43 50.179   +15 18 36.16  .35363 1.2504 131.7 22.4 1506 127
2022 11 26 08  00 43 58.650   +15 17 44.36  .35383 1.2505 131.7 22.4 1509 127
2022 11 26 09  00 44 07.120   +15 16 52.64  .35403 1.2506 131.6 22.4 1513 127
2022 11 26 10  00 44 15.586   +15 16 00.98  .35423 1.2507 131.6 22.4 1517 127
2022 11 26 11  00 44 24.050   +15 15 09.39  .35443 1.2508 131.6 22.4 1521 127
2022 11 26 12  00 44 32.510   +15 14 17.87  .35463 1.2509 131.6 22.4 1524 127
2022 11 26 13  00 44 40.969   +15 13 26.42  .35483 1.2510 131.6 22.4 1528 127
2022 11 26 14  00 44 49.424   +15 12 35.04  .35503 1.2511 131.6 22.4 1532 127
2022 11 26 15  00 44 57.876   +15 11 43.72  .35523 1.2512 131.6 22.4 1535 127
2022 11 26 16  00 45 06.326   +15 10 52.48  .35543 1.2514 131.6 22.4 1539 127
2022 11 26 17  00 45 14.773   +15 10 01.30  .35563 1.2515 131.5 22.4 1543 127
2022 11 26 18  00 45 23.218   +15 09 10.19  .35583 1.2516 131.5 22.4 1547 127
2022 11 26 19  00 45 31.659   +15 08 19.15  .35603 1.2517 131.5 22.4 1550 127
2022 11 26 20  00 45 40.098   +15 07 28.18  .35623 1.2518 131.5 22.4 1554 127
2022 11 26 21  00 45 48.534   +15 06 37.28  .35643 1.2519 131.5 22.4 1558 127
2022 11 26 22  00 45 56.967   +15 05 46.45  .35663 1.2520 131.5 22.4 1561 127
2022 11 26 23  00 46 05.398   +15 04 55.68  .35684 1.2521 131.5 22.4 1565 127
2022 11 27 00  00 46 13.825   +15 04 04.99  .35704 1.2522 131.5 22.4 1569 127
2022 11 27 01  00 46 22.250   +15 03 14.36  .35724 1.2524 131.5 22.4 1573 127
2022 11 27 02  00 46 30.672   +15 02 23.80  .35744 1.2525 131.4 22.4 1576 127
2022 11 27 03  00 46 39.092   +15 01 33.31  .35765 1.2526 131.4 22.4 1580 127
2022 11 27 04  00 46 47.508   +15 00 42.89  .35785 1.2527 131.4 22.4 1584 127
2022 11 27 05  00 46 55.922   +14 59 52.54  .35805 1.2528 131.4 22.4 1587 127
2022 11 27 06  00 47 04.333   +14 59 02.26  .35826 1.2529 131.4 22.4 1591 127
2022 11 27 07  00 47 12.741   +14 58 12.05  .35846 1.2530 131.4 22.4 1595 127
2022 11 27 08  00 47 21.147   +14 57 21.90  .35866 1.2531 131.4 22.5 1599 127
2022 11 27 09  00 47 29.550   +14 56 31.83  .35887 1.2532 131.4 22.5 1602 127
2022 11 27 10  00 47 37.949   +14 55 41.82  .35907 1.2534 131.3 22.5 1606 127
2022 11 27 11  00 47 46.346   +14 54 51.89  .35928 1.2535 131.3 22.5 1610 127
2022 11 27 12  00 47 54.741   +14 54 02.02  .35948 1.2536 131.3 22.5 1613 127